Location: �bnet
(46.9957°N, 8.4908°E)
Time: 00:35:59
(UTC+00:00)

Iridium 4 Rocket - Pass Details

Date: 11 May 2021
Orbit: 583 x 906 km, 86.9° (Epoch: 18 June)

Event Time Altitude Azimuth Distance (km) Brightness Sun altitude
Exits shadow 21:30:58 19° 206° (SSW) 1,948 5.3 -20.2°
Maximum altitude 21:34:59 55° 277° (W) 1,077 4.4 -20.5°
Drops below altitude 10° 21:40:49 10° 355° (N) 2,600 7.2 -21.0°
Sets 21:43:21 0° 360° (N) 3,540 8.1 -21.2°
